Hourly Data Report for March 17, 2011

HALIFAX STANFIELD INT'L A
NOVA SCOTIA

44°52'48.060" N
63°30'00.050" W
145.40 m
8202250
71395
YHZ

Download Data

Hourly Data (March 2011)
Hourly Data Report for March 17, 2011
TIME
LST
Temp Definition
°C
Dew Point Definition
°C
Rel Hum Definition
%
Precip. Amount Definition
mm

Wind Dir Definition
10's deg

Wind Spd Definition
km/h
Visibility Definition
km
Stn Press Definition
kPa
Hmdx Definition


Wind Chill Definition


Weather Definition


00:00 3.5 2.7 94   14 28 3.2 99.56     Moderate Rain, Fog
01:00 4.4 3.9 97   19 28 2.0 99.48     Rain, Fog
02:00 4.8 4.3 97   18 22 3.2 99.38     Rain, Fog
03:00 4.9 4.5 97   18 24 2.0 99.25     Drizzle, Fog
04:00 4.8 4.4 97   23 13 0.8 99.22     Fog
05:00 4.8 4.2 96   26 7 1.6 99.24     Fog
06:00 4.7 4.2 97   31 19 4.8 99.26     Fog
07:00 3.7 2.8 94   32 32 9.7 99.33     Fog
08:00 3.1 2.5 96   32 19 3.2 99.43     Fog
09:00 3.9 3.0 94   31 30 24.1 99.48     Mostly Cloudy
10:00 3.4 2.1 91   31 30 24.1 99.56     Cloudy
11:00 2.8 0.9 87   32 26 24.1 99.56     Cloudy
12:00 3.5 1.4 86   29 20 24.1 99.58     Cloudy
13:00 4.3 1.5 82   31 19 24.1 99.58     Cloudy
14:00 5.2 1.5 77   32 17 24.1 99.58     Mostly Cloudy
15:00 7.0 1.4 67   33 20 24.1 99.52     Mostly Cloudy
16:00 7.2 1.0 65   29 15 24.1 99.57     Mostly Cloudy
17:00 7.3 -0.1 59   28 20 24.1 99.61     Mostly Cloudy
18:00 5.6 -0.5 65   28 7 24.1 99.67     Mainly Clear
19:00 3.1 -0.7 76   29 7 24.1 99.70     Mainly Clear
20:00 2.1 -0.7 82   26 6 24.1 99.75     Mainly Clear
21:00 2.0 -0.8 82   24 7 24.1 99.72     Mainly Clear
22:00 2.2 -0.8 81   26 9 24.1 99.74     Clear
23:00 1.1 -1.2 85   26 9 24.1 99.71     Mainly Clear

Notes on Data Quality.

Legend

  • E = Estimated
  • M = Missing
  • NA = Not Available*
  • [empty] = Indicates an unobserved value
Date modified: